EST,Max TemperatureF,Mean TemperatureF,Min TemperatureF,Max Dew PointF,MeanDew PointF,Min DewpointF,Max Humidity, Mean Humidity, Min Humidity, Max Sea Level PressureIn, Mean Sea Level PressureIn, Min Sea Level PressureIn, Max VisibilityMiles, Mean VisibilityMiles, Min VisibilityMiles, Max Wind SpeedMPH, Mean Wind SpeedMPH, Max Gust SpeedMPH,PrecipitationIn, CloudCover, Events, WindDirDegrees
2013-1-1,32,26,21,31,27,15,100,91,72,30.21,30.08,30.01,10,4,1,12,7,,0.04,8,Snow,293
2013-1-2,28,19,10,18,14,9,100,89,63,30.33,30.25,30.11,9,4,0,8,1,,0.01,1,Fog,283
2013-1-3,33,22,10,22,15,7,92,74,50,30.37,30.30,30.17,10,7,2,18,6,30,0.00,3,,248
2013-1-4,33,30,26,23,20,18,78,70,56,30.40,30.36,30.27,10,10,8,23,14,30,0.00,3,,254
2013-1-5,37,28,19,29,24,18,92,81,67,30.44,30.34,30.22,10,9,5,9,7,,0.00,4,,210
2013-1-6,37,32,26,32,27,21,93,82,74,30.39,30.16,30.00,10,7,2,24,10,30,0.02,8,Rain,250
2013-1-7,37,32,26,27,24,21,93,81,67,30.54,30.43,30.32,8,5,2,8,5,,0.00,4,,213
2013-1-8,48,36,23,34,27,19,85,74,56,30.39,30.33,30.29,10,9,7,12,6,,0.00,0,,189
2013-1-9,51,42,34,44,35,28,97,75,52,30.56,30.37,30.26,10,10,6,17,9,23,0.04,3,Rain,242
2013-1-10,43,36,28,36,31,27,96,82,73,30.58,30.45,30.18,10,9,6,12,4,17,0.00,4,Rain,93
2013-1-11,60,52,43,54,49,37,100,85,69,30.17,29.98,29.91,10,9,2,21,12,30,0.30,5,Rain,189
2013-1-12,63,58,53,61,57,51,100,93,81,30.06,29.96,29.83,10,8,1,17,10,25,0.02,6,Rain,191
2013-1-13,64,50,37,59,52,35,100,93,78,30.12,29.90,29.77,10,8,3,24,15,33,0.58,8,Rain,209
2013-1-14,37,30,24,34,24,20,93,83,78,30.50,30.33,30.09,10,9,5,16,10,22,0.00,7,,346
2013-1-15,30,26,21,25,22,19,92,82,74,30.45,30.31,30.06,10,8,5,14,10,18,0.00,4,,44
2013-1-16,34,31,28,29,27,25,93,84,73,30.13,30.05,29.97,8,6,4,13,7,,0.00,5,,256
2013-1-17,37,32,26,29,25,19,85,77,70,30.42,30.21,30.09,10,8,7,14,7,22,0.00,4,,294
2013-1-18,35,26,18,24,19,14,88,68,56,30.58,30.47,30.28,10,10,10,17,9,24,0.00,0,,216
2013-1-19,52,44,35,29,25,21,64,51,34,30.27,30.10,29.93,10,10,10,28,19,34,0.00,0,,212
2013-1-20,44,34,24,33,16,9,66,51,41,30.25,30.14,29.92,10,10,10,30,17,44,0.00,2,,290
2013-1-21,24,17,9,18,10,-4,86,66,52,30.30,30.14,30.03,10,8,0,26,13,32,0.02,6,Fog-Snow,279
2013-1-22,16,10,5,1,-2,-4,70,55,43,30.46,30.39,30.30,10,10,10,15,11,25,0.00,1,,284
2013-1-23,19,16,12,13,6,-1,84,65,47,30.42,30.31,30.14,10,9,2,16,6,,0.01,7,Snow,243
2013-1-24,21,16,10,16,9,3,93,71,46,30.65,30.40,30.06,10,8,2,17,9,23,0.01,3,Snow,346
2013-1-25,24,20,17,20,14,6,93,78,57,30.51,30.17,30.00,10,6,0,15,9,17,0.11,7,Fog-Snow,163
2013-1-26,30,24,19,21,18,15,96,78,56,30.51,30.31,30.11,10,7,4,14,9,,0.00,6,,300
2013-1-27,34,25,16,31,21,12,96,79,64,30.53,30.42,30.19,10,7,3,12,7,,0.17,4,Rain,115
2013-1-28,50,42,33,50,44,32,100,95,79,30.24,30.10,30.02,10,4,0,20,12,26,0.31,8,Fog-Rain,209
2013-1-29,63,54,46,56,51,46,100,89,75,30.09,29.94,29.61,10,6,2,23,11,34,0.00,5,,194
2013-1-30,64,48,32,57,48,24,100,87,73,29.54,29.41,29.29,10,7,1,33,20,54,0.70,7,Rain-Snow,235
2013-1-31,30,24,17,24,18,12,93,75,56,29.98,29.86,29.59,10,5,0,30,21,41,0.01,8,Fog-Snow,270